Hampton Weather Center

Moon Phase Calendar



Online Cameras

 


      

Current Conditions in Hampton Beach
11/28/2020 12:23:19 AM

45°F
Feels Like 39
Clouds
Humidity
75%
Pressure
29.91"
Wind
4.7 mph (SW)
Dew Point
37°F
UV Index
0/10 (Low)
Visibility
6 mi

Hourly Forecast

Date & Time Sat, Nov 28
12:00 AM
Sat, Nov 28
1:00 AM
Sat, Nov 28
2:00 AM
Sat, Nov 28
3:00 AM
Sat, Nov 28
4:00 AM
Sat, Nov 28
5:00 AM
Sat, Nov 28
6:00 AM
Sat, Nov 28
7:00 AM
Sat, Nov 28
8:00 AM
Sat, Nov 28
9:00 AM
Sat, Nov 28
10:00 AM
Sat, Nov 28
11:00 AM
Sat, Nov 28
12:00 PM
Sat, Nov 28
1:00 PM
Sat, Nov 28
2:00 PM
Sat, Nov 28
3:00 PM
Sat, Nov 28
4:00 PM
Sat, Nov 28
5:00 PM
Sat, Nov 28
6:00 PM
Sat, Nov 28
7:00 PM
Sat, Nov 28
8:00 PM
Sat, Nov 28
9:00 PM
Sat, Nov 28
10:00 PM
Sat, Nov 28
11:00 PM
Sun, Nov 29
12:00 AM
Sun, Nov 29
1:00 AM
Sun, Nov 29
2:00 AM
Sun, Nov 29
3:00 AM
Sun, Nov 29
4:00 AM
Sun, Nov 29
5:00 AM
Sun, Nov 29
6:00 AM
Sun, Nov 29
7:00 AM
Sun, Nov 29
8:00 AM
Sun, Nov 29
9:00 AM
Sun, Nov 29
10:00 AM
Sun, Nov 29
11:00 AM
Sun, Nov 29
12:00 PM
Sun, Nov 29
1:00 PM
Sun, Nov 29
2:00 PM
Sun, Nov 29
3:00 PM
Sun, Nov 29
4:00 PM
Sun, Nov 29
5:00 PM
Sun, Nov 29
6:00 PM
Sun, Nov 29
7:00 PM
Sun, Nov 29
8:00 PM
Sun, Nov 29
9:00 PM
Sun, Nov 29
10:00 PM
Sun, Nov 29
11:00 PM
Condition
Clouds

Clouds

Clouds

Clouds

Clouds

Clouds

Clouds

Clouds

Clear

Clear

Clear

Clear

Clear

Clouds

Clouds

Clouds

Clouds

Clouds

Clouds

Clouds

Clear

Clear

Clear

Clear

Clear

Clear

Clear

Clear

Clear

Clear

Clear

Clear

Clear

Clear

Clear

Clear

Clear

Clear

Clear

Clear

Clear

Clear

Clear

Clear

Clear

Clear

Clouds

Clouds
Temperature 45°F45°F44°F43°F42°F41°F40°F40°F41°F44°F47°F49°F50°F50°F49°F49°F46°F45°F43°F43°F42°F41°F40°F39°F39°F38°F38°F38°F38°F37°F37°F37°F38°F41°F43°F45°F47°F48°F48°F48°F46°F44°F44°F43°F43°F42°F42°F41°F
Feels Like 39°F39°F37°F37°F36°F35°F34°F34°F36°F39°F41°F43°F44°F43°F41°F42°F40°F37°F35°F33°F33°F32°F31°F30°F29°F29°F28°F28°F28°F28°F28°F28°F29°F32°F35°F38°F39°F41°F42°F42°F40°F38°F37°F36°F36°F35°F35°F34°F
Cloudiness 90%93%64%60%51%43%34%29%3%1%1%0%1%15%89%80%57%55%44%36%0%0%0%0%0%1%2%1%1%0%0%0%0%0%0%0%0%0%0%0%0%0%0%0%2%8%30%22%
Visibility 6 mi6 mi6 mi6 mi6 mi6 mi6 mi6 mi6 mi6 mi6 mi6 mi6 mi6 mi6 mi6 mi6 mi6 mi6 mi6 mi6 mi6 mi6 mi6 mi6 mi6 mi6 mi6 mi6 mi6 mi6 mi6 mi6 mi6 mi6 mi6 mi6 mi6 mi6 mi6 mi6 mi6 mi6 mi6 mi6 mi6 mi6 mi6 mi
Precipitation 0%0%0%0%0%0%0%0%0%0%0%0%0%0%11%5%0%0%0%0%0%0%0%0%0%0%0%0%0%0%0%0%0%0%0%0%0%0%0%0%0%0%0%0%0%0%0%0%
Humidity 75%73%75%76%80%83%85%86%81%74%69%65%64%65%65%67%73%76%78%81%78%78%77%74%75%76%77%78%78%79%80%81%77%70%64%61%59%58%58%63%69%70%71%72%74%75%77%77%
Dew Point 37°F37°F36°F36°F36°F36°F36°F36°F36°F37°F37°F38°F38°F39°F38°F39°F39°F38°F37°F37°F36°F35°F34°F32°F31°F31°F31°F31°F31°F30°F30°F31°F31°F31°F32°F33°F33°F34°F35°F36°F36°F35°F35°F35°F35°F35°F35°F35°F
Pressure 29.91"29.91"29.91"29.91"29.91"29.91"29.91"29.91"29.91"29.91"29.91"29.88"29.88"29.88"29.88"29.88"29.91"29.91"29.94"29.94"29.97"29.97"29.97"30"30"30"30.03"30.03"30.03"30.06"30.06"30.09"30.09"30.12"30.12"30.09"30.09"30.09"30.06"30.06"30.09"30.09"30.12"30.12"30.12"30.12"30.12"30.12"
Wind Speed 5.5 mph5.9 mph6.1 mph6 mph5.7 mph5.3 mph4.7 mph4.3 mph3.5 mph3.6 mph4.5 mph5.3 mph7 mph8.7 mph10.1 mph7.8 mph7.1 mph9.1 mph9.3 mph11.8 mph11.6 mph11.1 mph10.6 mph10.9 mph10.7 mph10.7 mph10.7 mph10.1 mph10 mph9.5 mph9 mph9.2 mph8.9 mph8.5 mph7.8 mph7.2 mph6.7 mph6.8 mph5.7 mph5.4 mph5.3 mph5.5 mph6.6 mph7.7 mph7.2 mph6.8 mph7.2 mph7.4 mph
Wind
Direction
297°
WNW
281°
W
283°
WNW
299°
WNW
312°
NW
320°
NW
317°
NW
301°
WNW
291°
WNW
271°
W
260°
W
254°
WSW
266°
W
270°
W
270°
W
277°
W
288°
WNW
296°
WNW
296°
WNW
291°
WNW
294°
WNW
288°
WNW
285°
WNW
286°
WNW
286°
WNW
281°
W
282°
WNW
280°
W
281°
W
278°
W
272°
W
263°
W
263°
W
265°
W
265°
W
258°
WSW
248°
WSW
238°
WSW
237°
WSW
217°
SW
209°
SSW
212°
SSW
214°
SW
216°
SW
211°
SSW
206°
SSW
214°
SW
210°
SSW

Daily Forecast

Date High Low Precip. Humidity
Today
Nov 28

Clear
50 °F
39 °F
11%
65%
Sunday
Nov 29

Clear
48 °F
37 °F
0%
61%
Monday
Nov 30

Rain
55 °F
41 °F
100%
82%
Tuesday
Dec 1

Rain
57 °F
45 °F
100%
96%
Wednesday
Dec 2

Clear
45 °F
38 °F
0%
64%
Thursday
Dec 3

Clear
46 °F
37 °F
0%
67%
Friday
Dec 4

Clear
49 °F
39 °F
0%
57%
Saturday
Dec 5

Rain
47 °F
38 °F
100%
92%
Sunday
Dec 6

Rain
41 °F
35 °F
85%
72%
Monday
Dec 7

Clear
40 °F
28 °F
0%
71%
Tuesday
Dec 8

Clear
36 °F
27 °F
0%
81%
Wednesday
Dec 9

Clouds
39 °F
25 °F
0%
70%
Thursday
Dec 10

Snow
35 °F
26 °F
100%
96%
Friday
Dec 11

Clear
37 °F
28 °F
0%
85%
Saturday
Dec 12

Clouds
34 °F
25 °F
3%
89%
Sunday
Dec 13

Clouds
41 °F
24 °F
0%
78%


Temperature 8-14 Day Outlook



Precipitation 8-14 Day Outlook




Quick Links
Hampton News
Hampton Photos
Hampton Videos




About Us
Contact Us
Site Map
Search Site
Advertise With Us
   
Hampton.USCoast.info
THE HAMPTON WEBSITE

Copyright 2020, Coastal Town
Privacy    |    Legal